Regional Weather Roundup
Issued by NWS Grand Forks, ND

Home | Current Version | Previous Version | Text Only | Print | Product List | Glossary Off
Versions: 1 2 3 4 5 6 7 8 9 10 11 12 13 14 15 16 17 18 19 20 21 22 23 24 25 26 27 28 29 30 31 32 33 34 35 36 37 38 39 40 41 42 43 44 45 46 47 48 49 50

000
ASUS43 KFGF 152210
RWRFGF
PRAIRIE TO PINES  WEATHER ROUNDUP
NATIONAL WEATHER SERVICE EASTERN NORTH DAKOTA/GRAND FORKS ND
500 PM CDT MON SEP 15 2014

 **SATELLITE DATA USED TO AUGMENT SKY COVER AT AUTOMATED STATIONS**
 *****  WEATHER ACROSS EASTERN NORTH DAKOTA  *****

CITY           SKY/WX    TMP DP  RH WIND       PRES   REMARKS
GRAND FORKS    MOSUNNY   68  40  35 W12       30.11F
GRAND FRKS AFB MOSUNNY   67  38  35 W14       30.12F
GRAND FRKS NWS   N/A     64 N/A N/A W20         N/A
DEVILS LAKE    SUNNY     66  37  34 W15       30.09F
FARGO          MOSUNNY   65  35  33 W9        30.17S
WAHPETON ARPT  PTCLDY    63  32  31 NW9       30.19F
$$

 ***** WEATHER ACROSS CENTRAL AND WESTERN NORTH DAKOTA  *****

CITY           SKY/WX    TMP DP  RH WIND       PRES   REMARKS
BISMARCK       SUNNY     69  34  27 SW9       30.16F
MINOT          SUNNY     67  32  27 W8        30.10F
JAMESTOWN      MOSUNNY   63  37  38 SW15      30.16F
MINOT AFB      SUNNY     67  35  30 W12       30.09F
GARRISON         N/A     67  37  33 W10       30.12F
WILLISTON      SUNNY     68  32  26 S9        30.10F
DICKINSON      SUNNY     66  36  32 SW15      30.11F
HETTINGER      SUNNY     65  37  35 S10G17    30.16F
$$

 *****  OTHER AIRPORT OBSERVATIONS IN OUR AREA  *****

CITY           SKY/WX    TMP DP  RH WIND       PRES   REMARKS
WALHALLA         N/A     66  37  34 NW13G18   30.07F
GRAFTON AIRPOR MOCLDY    66  39  37 W18       30.09F
VALLEY CITY AR FAIR      64  37  36 SW16      30.16F
CANDO          FAIR      66  34  30 W15G22    30.10F
CAVALIER APRT  FAIR      66  37  34 W13G20    30.07F
GWINNER        PTCLDY    64  36  34 SW7       30.21S
SHEYENNE NWR     N/A     64  37  37 W6        29.95
ROLLA          FAIR      64  34  32 W14       30.11F
 ***** THE ABOVE OBSERVATIONS ARE NON NWS ARE NOT QUALITY
       CONTROLLED AND MAY MIS-REPORT RAIN FOR SNOW...
$$

  *****  WEATHER ACROSS NORTHERN MINNESOTA  *****

CITY           SKY/WX    TMP DP  RH WIND       PRES   REMARKS
FLAG ISLAND    MOSUNNY   61  36  39 SW7       30.07F
WARROAD        MOSUNNY   61  37  41 W10       30.10F
ROSEAU         SUNNY     63  32  31 W12       30.10F
HALLOCK        SUNNY     66  34  30 W12G17    30.08F
THF RVR FALLS  PTSUNNY   63  36  36 SW9       30.12F
BAUDETTE       SUNNY     60  34  37 SW8       30.10F
WASKISH        PTSUNNY   61  43  51 SW5       30.13F
CROOKSTON      MOSUNNY   64  37  36 W13       30.13F
STEPHEN NDAWN    N/A     64  39  39 W12         N/A
GREENBUSH NDAW   N/A     64  36  34 W9          N/A
$$
  *****  WEATHER ACROSS CENTRAL AND WEST MINNESOTA  *****

CITY           SKY/WX    TMP DP  RH WIND       PRES   REMARKS
FOSSTON        PTSUNNY   64  36  34 W7G17     30.15F
BEMIDJI        PTSUNNY   60  36  40 W10       30.15F
PARK RAPIDS    SUNNY     60  31  33 NW10      30.17F
ELBOW LAKE     FAIR      60  34  37 N7        30.20S
WADENA         SUNNY     59  34  38 NW6       30.18F
DETROIT LAKES  MOSUNNY   61  36  39 W6        30.19F
MOORHEAD       MOSUNNY   64  28  25 W6G16     30.18S
FERGUS FALLS   SUNNY     63  28  27 W6        30.20S
MORRIS MN      SUNNY     63  32  31 CALM      30.20S
STAPLES        SUNNY     59  30  33 NW8       30.19S
$$
  *****  WEATHER ELSEWHERE ACROSS MINNESOTA  *****

CITY           SKY/WX    TMP DP  RH WIND       PRES   REMARKS
DULUTH         MOSUNNY   57  34  41 NW8       30.14F
INTRNTL FALLS  MOSUNNY   59  35  40 W12       30.10F
ELY            PTSUNNY   54  36  50 W5G16     30.12S
CLOQUET        MOSUNNY   55  32  41 NW8       30.16S
WHEATON        SUNNY     61  32  33 CALM      30.23S
BRAINERD       MOSUNNY   58  33  39 N9        30.19S
HIBBING        PTSUNNY   56  35  45 NW9       30.15F
ALEXANDRIA     SUNNY     59  33  37 NW7       30.22S
SAINT CLOUD    MOSUNNY   63  37  38 NW9       30.19S
MINNEAPOLIS    MOSUNNY   61  36  39 NW13      30.19S
$$

  *****  WEATHER ACROSS SOUTH DAKOTA  *****

CITY           SKY/WX    TMP DP  RH WIND       PRES   REMARKS
SIOUX FALLS    MOSUNNY   63  42  46 NW5       30.23F
BROOKINGS      NOT AVBL
WATERTOWN      SUNNY     60  33  36 NW8       30.22F
HURON          SUNNY     64  33  31 VRB3      30.23F
SISSETON         N/A     63  31  30 W5        30.20F
ABERDEEN       SUNNY     62  34  35 SE3       30.22F
MITCHELL       SUNNY     64  38  38 CALM      30.24F
PIERRE         SUNNY     63  33  32 CALM      30.20F
MOBRIDGE       SUNNY     66  37  34 S9        30.17F
RAPID CITY     SUNNY     67  44  43 S20       30.16F
$$

  *****  SOME WEATHER IN NEARBY STATES *****

CITY           SKY/WX    TMP DP  RH WIND       PRES   REMARKS
GLASGOW MT     SUNNY     69  35  28 S10       30.06F
GREAT FALLS MT SUNNY     75  33  21 CALM      30.03F
CHEYENNE WY    SUNNY     69  36  29 S20       30.28F
SCOTTSBLUFF NE SUNNY     72  45  37 SE18      30.20F
OMAHA NE       PTSUNNY   62  45  53 NE10      30.24S
DES MOINES IA  PTSUNNY   61  47  59 N16       30.19S
DAVENPORT IA   CLOUDY    57  50  77 NE14      30.14R
CHICAGO IL     CLOUDY    59  53  80 NW5       30.09S
EAU CLAIRE WI  MOSUNNY   61  36  39 NW16      30.16S
LA CROSSE WI   PTSUNNY   63  46  54 NW12      30.16S
$$

  *****  SOME NATIONAL WEATHER *****

CITY           SKY/WX    TMP DP  RH WIND       PRES   REMARKS
LA GUARDIA NY  PTSUNNY   71  42  35 W8        30.10F
RALEIGH NC     CLOUDY    71  64  78 S5        30.14F
ATLANTA GA     CLOUDY    78  70  76 SE6       30.12S
NEW ORLEANS LA CLOUDY    78  74  87 S8        30.05S
OKLAHOMA CITY  PTSUNNY   83  64  52 S6        30.11S
ALBUQUERQUE NM MOSUNNY   85  54  34 W10G20    30.16F
SALT LAKE CITY MOSUNNY   88  38  17 NW9       30.07F
LOS ANGELES CA MOSUNNY   83  60  45 W21       29.76F
BOISE ID       SUNNY     91  33  12 CALM      29.96F
SEATTLE WA     MOSUNNY   85  40  20 W8        29.83F
$$

*** WEATHER ACROSS MANITOBA...SASKATCHEWAN AND ONTARIO ***
                ***ONTARIO***

CITY           SKY/WX    TMP DP  RH WIND       PRES   REMARKS
GERALDTON      MOSUNNY   52  41  66 NW7       29.99F
THUNDER BAY    MOSUNNY   59  39  47 W10G18    30.06S
SIOUX LOOKOUT  PTSUNNY   57  39  51 W9G20     30.00F
TORONTO        NOT AVBL
BIG TROUT LK   CLOUDY    55  41  58 W8        29.77F
PICKLE LAKE    PTSUNNY   57  37  47 W10       29.91F
DRYDEN         MOSUNNY   59  36  41 W17G24    30.02F
KENORA         NOT AVBL
$$
                *** MANITOBA***

CITY           SKY/WX    TMP DP  RH WIND       PRES   REMARKS
BRANDON        MOSUNNY   66  39  37 W15G25    30.05F
DAUPHIN        MOSUNNY   68  39  34 W18G24    29.96F
ISLAND LAKE    PTSUNNY   63  37  39 W10       29.81F
PILOT MOUND      N/A     64  34  32 W8          N/A
THE PAS        MOSUNNY   63  45  51 W9        29.87
THOMPSON       LGT RAIN  39  39 100 NE10      29.92R
WINNIPEG       MOSUNNY   64  34  32 W14G20    30.05F
LYNN LAKE      CLOUDY    39  30  70 MISG      30.00R
GILLAM         DRIZZLE   36  32  87 SW17G24   29.94R
$$
                ***SASKATCHEWAN***

CITY           SKY/WX    TMP DP  RH WIND       PRES   REMARKS
ESTEVAN        MOSUNNY   68  37  32 SW10      30.08F
KINDERSLEY     SUNNY     73  39  29 SW8       29.99F
LLOYDMINSTER   MOSUNNY   73  39  29 W10G17    29.94F
PRINCE ALBERT  NOT AVBL
REGINA         MOSUNNY   70  37  30 W13G22    30.02F
YORKTON        MOSUNNY   68  39  34 W16       29.98F
N. BATTLEFORD  SUNNY     73  39  29 NW13G21   29.97F
LA RONGE       PTSUNNY   66  39  37 W12G18    29.90S
SASKATOON      MOSUNNY   73  39  29 W10G20    29.98F
SWIFT CURRENT  NOT AVBL
$$
NOTE: THESE ARE AUTOMATED STATIONS WITH LIMITED QUALITY CONTROL
      "FAIR" INDICATES FEW OR NO CLOUDS BELOW 12,000 FEET WITH NO
      SIGNIFICANT WEATHER AND/OR OBSTRUCTIONS TO VISIBILITY.
      SKY/WX - SKY CONDITION AND SIGNIFICANT WEATHER.
      TMP - AIR TEMPERATURE.    DP   - DEWPOINT TEMPERATURE.
      RH  - RELATIVE HUMIDITY.  PRES - PRESSURE.
      HX  - HEAT INDEX.         WCI  - WIND CHILL INDEX.
$



USA.gov is the U.S. government's official web portal to all federal, state and local government web resources and services.